sat.trackr.live / text

‹ back to catalog

STARLINK-30427

NORAD 57865 · 2023-144B

PAYLOAD ACTIVE UNKNOWN

§ Identity

Operator
Country
US
Launch date
2023-09-16
Launch site
AFETR
Launch vehicle
Mass (kg)
RCS (m²)

Purposes: comms

External: N2YO · Heavens-Above · Gunter

§ Orbital elements

Epoch: 2026-09-20T16:55:20.811072Z

Period
94.27 min
Inclination
43.0026°
Eccentricity
0.0000816
Mean motion
15.27583744 rev/d
Perigee alt
482.5 km
Apogee alt
483.6 km
Semi-major
6,861.2 km
B*
-3.7156e-5
RAAN
263.7615°
Arg perigee
262.6864°
Mean anomaly
97.3895°
Rev number
16,742

§ Raw data

STARLINK-304271 57865U 23144B   26263.70510198 -.00001284  00000+0 -37156-4 0  99972 57865  43.0026 263.7615 0000816 262.6864  97.3895 15.27583744167424

JSON: /api/v1/satellites/57865 · /tle

For live sub-satellite position, see the globe view (requires WebGL).

§ Visibility from observer

Set your observer location to see the next 7 days of passes ≥ 10°. The values pass through the URL so the page stays shareable.

No JS? Fill the form by hand. The geolocation button needs JavaScript.